Flag for Germany Weather past 2 weeks in Taunusstein, Hesse, Germany

Now
70 °F

Partly sunny.


Feels Like: 70 °F
Forecast: 48 / 58 °F
Wind: 3 mph from South

Location: Wiesbaden Airport

Current Time: May 24, 2015 at 5:46:11 PM

Latest Report: May 24, 2015 at 4:58 PM


Visibility: N/A

Pressure: 30.04 "Hg

Humidity: 53%

Dew point: 52 °F

Location of TaunussteinLocation

Historic Weather in Taunusstein — Graph

°F

Taunusstein temperature yesterday

Maximum temperature yesterday: 68 °F (at 2:58 PM)
Minimum temperature yesterday: 56 °F (at 6:58 AM)
Average temperature yesterday: 62 °F

Past Weeks' High & Low Weather Summary

 TemperatureHumidityPressure
High82 °F (May 12, 3:58 PM)98% (May 10, 3:58 AM)30.34 "Hg (May 10, 3:58 AM)
Low40 °F (May 22, 5:58 AM)33% (May 18, 2:58 PM)29.67 "Hg (May 19, 1:58 AM)
Average59 °F62%30.08 "Hg
* Reported May 9 3:59 PM — May 24 3:58 PM, Taunusstein, Weather by CustomWeather, © 2015

Note: Actual official high and low records may vary slightly from our data, if they occured in-between our weather recording intervals... More about our weather records

Advertising

Taunusstein weather history for previous 24 hours

 ConditionsComfort  
Time TempWeatherWind HumidityBarometerVisibility
3:58 PM
Sun, May 24
69 °FPartly sunny.6 mph54%30.05 "HgN/A
2:58 PM70 °FScattered clouds.2 mph52%30.06 "HgN/A
1:58 PM68 °FPassing clouds.3 mph56%30.08 "HgN/A
12:58 PM66 °FBroken clouds.3 mph64%30.09 "HgN/A
11:58 AM65 °FScattered clouds.3 mph66%30.10 "HgN/A
10:58 AM63 °FPartly sunny.3 mph68%30.11 "HgN/A
9:58 AM61 °FScattered clouds.6 mph72%30.11 "HgN/A
9:00 AM59 °FScattered clouds.3 mph77%30.11 "HgN/A
8:58 AM59 °FPartly sunny.5 mph77%30.11 "HgN/A
7:58 AM58 °FMore clouds than sun.5 mph80%30.10 "HgN/A
6:58 AM56 °FOvercast.3 mph83%30.09 "HgN/A
5:58 AM57 °FOvercast.3 mph82%30.08 "HgN/A
4:58 AM57 °FOvercast.6 mph82%30.09 "HgN/A
3:58 AM57 °FOvercast.7 mph82%30.09 "HgN/A
2:58 AM59 °FMostly cloudy.5 mph77%30.09 "HgN/A
1:58 AM59 °FMostly cloudy.5 mph77%30.10 "HgN/A
12:58 AM61 °FOvercast.6 mph68%30.10 "HgN/A
11:58 PM
Sat, May 23
61 °FOvercast.5 mph68%30.10 "HgN/A
10:58 PM61 °FMostly cloudy.5 mph68%30.10 "HgN/A
9:58 PM61 °FOvercast.5 mph68%30.09 "HgN/A
8:58 PM63 °FOvercast.6 mph64%30.08 "HgN/A
7:58 PM64 °FOvercast.6 mph59%30.07 "HgN/A
6:58 PM64 °FOvercast.10 mph56%30.07 "HgN/A
5:58 PM66 °FOvercast.8 mph56%30.08 "HgN/A
Weather by CustomWeather, © 2015

See weather overviewHow to use our weather pages